Orbital Elements at Epoch 2459200.5 (2020-Dec-17.0) TDB
Reference: JPL 12 (heliocentric ecliptic J2000)
Element | Value | Uncertainty (1-sigma) | Units |
e | .1673705140572382 | 4.9395e-08 | |
a | 2.336973634011825 | 1.4127e-08 | au |
q | 1.945833155549054 | 1.213e-07 | au |
i | 5.115264256099616 | 7.9969e-06 | deg |
node | 334.4563876557682 | 5.8737e-05 | deg |
peri | 89.3598433317883 | 7.0758e-05 | deg |
M | 72.48301695371588 | 3.4671e-05 | deg |
tp | 2458937.768039373149 (2020-Mar-29.26803937) | 0.00012458 | TDB |
period | 1304.905753109899 3.57 | 1.1832e-05 3.239e-08 | d yr |
n | .2758819931186867 | 2.5015e-09 | deg/d |
Q | 2.728114112474596 | 1.6491e-08 | au |
|
| | Orbit Determination Parameters
Additional Information
|